This is the latest recevied weather packets stored in our database for station/object K5YNC. If no packets are shown the sender has not sent any weather packets the latest 10 day(s).
| Time | Temp. | Humidity | Pressure | Rain* | Wind** | Luminosity | Snow |
|---|---|---|---|---|---|---|---|
| 1777901256 | 17.22° C | 72% | 1013 hPa | 0 mm | - | 149 W/m² | - |
| 1777900953 | 17.22° C | 73% | 1013.1 hPa | 0 mm | - | 90 W/m² | - |
| 1777900651 | 16.67° C | 73% | 1013 hPa | 0 mm | - | 98 W/m² | - |
| 1777900348 | 16.67° C | 73% | 1012.9 hPa | 0 mm | - | 68 W/m² | - |
| 1777900045 | 16.67° C | 73% | 1013 hPa | 0 mm | - | 61 W/m² | - |
| 1777899740 | 16.67° C | 73% | 1012.9 hPa | 0 mm | - | 62 W/m² | - |
| 1777899438 | 16.67° C | 72% | 1013 hPa | 0 mm | - | 66 W/m² | - |
| 1777899136 | 16.67° C | 72% | 1012.9 hPa | 0 mm | - | 67 W/m² | - |
| 1777898833 | 16.67° C | 71% | 1012.9 hPa | 0 mm | - | 60 W/m² | - |
| 1777898531 | 16.67° C | 71% | 1012.8 hPa | 0 mm | - | 55 W/m² | - |
| 1777898228 | 16.67° C | 71% | 1012.8 hPa | 0 mm | - | 55 W/m² | - |
| 1777897925 | 16.67° C | 71% | 1013 hPa | 0 mm | - | 48 W/m² | - |
| 1777897621 | 16.67° C | 70% | 1012.9 hPa | 0 mm | - | 44 W/m² | - |
| 1777897316 | 16.67° C | 70% | 1013 hPa | 0 mm | - | 39 W/m² | - |
| 1777897013 | 16.67° C | 70% | 1013 hPa | 0 mm | - | 37 W/m² | - |
| 1777896710 | 16.67° C | 69% | 1013 hPa | 0 mm | - | 32 W/m² | - |
| 1777896407 | 16.67° C | 69% | 1012.8 hPa | 0 mm | - | 29 W/m² | - |
| 1777896105 | 16.67° C | 69% | 1012.9 hPa | 0 mm | - | 24 W/m² | - |
| 1777895803 | 16.67° C | 69% | 1012.9 hPa | 0 mm | - | 19 W/m² | - |
| 1777895500 | 16.67° C | 69% | 1012.7 hPa | 0 mm | - | 14 W/m² | - |
| 1777895197 | 16.67° C | 69% | 1012.7 hPa | 0 mm | - | 8 W/m² | - |
| 1777894895 | 16.67° C | 68% | 1012.8 hPa | 0 mm | - | 5 W/m² | - |
| 1777894592 | 16.67° C | 69% | 1012.9 hPa | 0 mm | - | 3 W/m² | - |
| 1777894289 | 16.67° C | 69% | 1012.7 hPa | 0 mm | - | 1 W/m² | - |
| 1777893986 | 16.67° C | 69% | 1012.8 hPa | 0 mm | - | 0 W/m² | - |
* Rain latest hour (hover to see other rain measurements)
** Current wind speed in m/s (hover to see current wind gust speed)